Location: Eurasberg
(48.3353°N, 11.0839°E)
Time: 08:48:58
(UTC+00:00)

Cosmos 1763 Rocket - Pass Details

Date: 18 January 2026
Orbit: 729 x 773 km, 74.0° (Epoch: 18 February)

Event Time Altitude Azimuth Distance (km) Brightness Sun altitude
Exits shadow 06:10:53 - 322° (NW) 2,588 5.7 -8.1°
Reaches altitude 10° 06:11:54 10° 317° (NW) 2,239 5.4 -7.9°
Maximum altitude 06:16:09 28° 260° (W) 1,356 4.4 -7.3°
Drops below altitude 10° 06:20:26 10° 202° (SSW) 2,240 6.0 -6.6°
Sets 06:23:03 0° 191° (S) 3,164 6.9 -6.2°
